Location: Peebles
(55.6412°N, 3.1714°W)
Time: 16:36:13
(UTC+01:00)

USA 238 DEB - Pass Details

Date: 21 January 2022
Orbit: 969 x 1243 km, 63.4° (Epoch: 04 May)

Event Time Altitude Azimuth Distance (km) Brightness Sun altitude
Rises 17:27:49 0° 213° (SSW) 3,692 7.6 -8.7°
Reaches altitude 10° 17:30:21 10° 210° (SSW) 2,770 6.7 -9.0°
Maximum altitude 17:36:45 63° 131° (SE) 1,157 3.8 -9.8°
Enters shadow 17:43:13 12° 53° (NE) 2,822 5.3 -10.7°
